sat.trackr.live / text

‹ back to catalog

GLOBALSTAR M093

NORAD 39073 · 2013-005B

PAYLOAD ACTIVE UNKNOWN

§ Identity

Operator
Country
GLOB
Launch date
2013-02-06
Launch site
TYMSC
Launch vehicle
Mass (kg)
RCS (m²)
4.82

Purposes: comms

External: N2YO · Heavens-Above · Gunter

§ Orbital elements

Epoch: 2026-05-24T20:32:34.423872Z

Period
114.08 min
Inclination
52.0115°
Eccentricity
0.0000485
Mean motion
12.62265217 rev/d
Perigee alt
1,413.2 km
Apogee alt
1,414.0 km
Semi-major
7,791.7 km
B*
1.0933e-4
RAAN
307.6952°
Arg perigee
97.9847°
Mean anomaly
262.1075°
Rev number
61,391

§ Raw data

GLOBALSTAR M0931 39073U 13005B   26144.85595398 -.00000084  00000+0  10933-3 0  99912 39073  52.0115 307.6952 0000485  97.9847 262.1075 12.62265217613918

JSON: /api/v1/satellites/39073 · /tle

For live sub-satellite position, see the globe view (requires WebGL).

§ Visibility from observer

Set your observer location to see the next 7 days of passes ≥ 10°. The values pass through the URL so the page stays shareable.

No JS? Fill the form by hand. The geolocation button needs JavaScript.